EN

Hourly Weather Ladozhskoe

Today, 25 July, Sunday

Time Temperature Precipitation Wind Pressure Humidity
00:00 +13°C° 0 mm 1 mps 750 mmHg 62%
01:00 +12°C° 0 mm 1 mps 750 mmHg 64%
02:00 +10°C° 0 mm 1 mps 750 mmHg 66%
03:00 +11°C° 0 mm 1 mps 750 mmHg 65%
04:00 +11°C° 0 mm 1 mps 750 mmHg 65%
05:00 +12°C° 0 mm 1 mps 751 mmHg 64%
06:00 +14°C° 0 mm 1 mps 751 mmHg 59%
07:00 +15°C° 0 mm 1 mps 751 mmHg 54%
08:00 +18°C° 0 mm 1 mps 751 mmHg 49%
09:00 +20°C° 0 mm 1 mps 751 mmHg 45%
10:00 +21°C° 0 mm 1 mps 751 mmHg 41%
11:00 +23°C° 0 mm 2 mps 751 mmHg 37%
12:00 +23°C° 0 mm 2 mps 751 mmHg 39%
13:00 +23°C° 0 mm 2 mps 751 mmHg 41%
14:00 +21°C° 0 mm 2 mps 751 mmHg 43%
15:00 +21°C° 0 mm 2 mps 751 mmHg 44%
16:00 +23°C° 0 mm 2 mps 751 mmHg 45%
17:00 +23°C° 0 mm 2 mps 752 mmHg 47%
18:00 +20°C° 0 mm 2 mps 752 mmHg 53%
19:00 +19°C° 0 mm 1 mps 752 mmHg 59%
20:00 +18°C° 0 mm 1 mps 752 mmHg 65%
21:00 +18°C° 0 mm 1 mps 752 mmHg 65%
22:00 +18°C° 0 mm 1 mps 752 mmHg 64%
23:00 +16°C° 0 mm 1 mps 752 mmHg 64%

Tomorrow, 26 July, Monday

Time Temperature Precipitation Wind Pressure Humidity
00:00 +16°C° 0 mm 1 mps 752 mmHg 64%
01:00 +16°C° 0 mm 1 mps 753 mmHg 64%
02:00 +16°C° 0 mm 1 mps 753 mmHg 64%
03:00 +16°C° 0 mm 1 mps 753 mmHg 65%
04:00 +16°C° 0 mm 1 mps 753 mmHg 66%
05:00 +16°C° 0 mm 1 mps 753 mmHg 67%
06:00 +18°C° 0 mm 1 mps 753 mmHg 62%
07:00 +20°C° 0 mm 1 mps 753 mmHg 57%
08:00 +22°C° 0 mm 1 mps 753 mmHg 52%
09:00 +23°C° 0 mm 2 mps 753 mmHg 48%
10:00 +24°C° 0 mm 2 mps 753 mmHg 45%
11:00 +25°C° 0 mm 2 mps 753 mmHg 41%
12:00 +26°C° 0 mm 3 mps 753 mmHg 39%
13:00 +27°C° 0 mm 3 mps 753 mmHg 36%
14:00 +28°C° 0 mm 3 mps 752 mmHg 34%
15:00 +27°C° 0 mm 2 mps 752 mmHg 38%
16:00 +27°C° 0 mm 2 mps 752 mmHg 42%
17:00 +26°C° 0 mm 1 mps 752 mmHg 46%
18:00 +24°C° 0 mm 1 mps 752 mmHg 51%
19:00 +23°C° 0 mm 1 mps 752 mmHg 55%
20:00 +21°C° 0 mm 1 mps 752 mmHg 60%
21:00 +20°C° 0 mm 1 mps 752 mmHg 63%
22:00 +19°C° 0 mm 1 mps 752 mmHg 66%
23:00 +18°C° 0 mm 1 mps 753 mmHg 69%

Day after tomorrow, 27 July, Tuesday

Time Temperature Precipitation Wind Pressure Humidity
00:00 +18°C° 0 mm 1 mps 753 mmHg 70%
01:00 +18°C° 0 mm 1 mps 753 mmHg 72%
02:00 +16°C° 0 mm 1 mps 753 mmHg 73%
03:00 +18°C° 0 mm 1 mps 753 mmHg 73%
04:00 +18°C° 0 mm 1 mps 753 mmHg 73%
05:00 +18°C° 0 mm 1 mps 753 mmHg 73%
06:00 +21°C° 0 mm 1 mps 753 mmHg 65%
07:00 +23°C° 0 mm 1 mps 753 mmHg 57%
08:00 +25°C° 0 mm 1 mps 753 mmHg 49%
09:00 +27°C° 0 mm 1 mps 752 mmHg 44%
10:00 +28°C° 0 mm 1 mps 752 mmHg 39%
11:00 +29°C° 0 mm 2 mps 752 mmHg 34%
12:00 +30°C° 0 mm 2 mps 752 mmHg 33%
13:00 +30°C° 0 mm 2 mps 751 mmHg 32%
14:00 +30°C° 0 mm 1 mps 751 mmHg 31%
15:00 +30°C° 0 mm 1 mps 751 mmHg 33%
16:00 +30°C° 0 mm 1 mps 751 mmHg 35%
17:00 +29°C° 0 mm 1 mps 750 mmHg 37%
18:00 +27°C° 0 mm 2 mps 750 mmHg 47%
19:00 +24°C° 0 mm 2 mps 750 mmHg 58%
20:00 +20°C° 0 mm 2 mps 750 mmHg 69%
21:00 +19°C° 0.1 mm 2 mps 750 mmHg 74%
22:00 +18°C° 0.1 mm 2 mps 750 mmHg 80%
23:00 +17°C° 0.1 mm 2 mps 750 mmHg 85%

28 July, Wednesday

Time Temperature Precipitation Wind Pressure Humidity
00:00 +17°C° 0 mm 2 mps 750 mmHg 86%
01:00 +18°C° 0 mm 1 mps 750 mmHg 87%
02:00 +16°C° 0 mm 1 mps 750 mmHg 88%
03:00 +18°C° 0 mm 1 mps 749 mmHg 88%
04:00 +18°C° 0 mm 1 mps 749 mmHg 88%
05:00 +18°C° 0 mm 1 mps 749 mmHg 88%
06:00 +20°C° 0 mm 1 mps 748 mmHg 79%
07:00 +22°C° 0 mm 1 mps 748 mmHg 69%
08:00 +25°C° 0 mm 1 mps 748 mmHg 60%
09:00 +26°C° 0 mm 2 mps 747 mmHg 54%
10:00 +28°C° 0 mm 2 mps 747 mmHg 47%
11:00 +29°C° 0 mm 2 mps 746 mmHg 41%
12:00 +28°C° 0 mm 2 mps 746 mmHg 46%
13:00 +27°C° 0 mm 2 mps 745 mmHg 50%
14:00 +26°C° 0 mm 2 mps 745 mmHg 55%
15:00 +25°C° 0.7 mm 2 mps 745 mmHg 63%
16:00 +24°C° 0.7 mm 2 mps 745 mmHg 70%
17:00 +22°C° 0.7 mm 3 mps 745 mmHg 77%
18:00 +21°C° 0.1 mm 2 mps 744 mmHg 82%
19:00 +19°C° 0.1 mm 2 mps 744 mmHg 87%
20:00 +18°C° 0.1 mm 2 mps 743 mmHg 91%
21:00 +17°C° 0 mm 2 mps 743 mmHg 93%
22:00 +18°C° 0 mm 1 mps 743 mmHg 95%
23:00 +16°C° 0 mm 1 mps 742 mmHg 97%

29 July, Thursday

Time Temperature Precipitation Wind Pressure Humidity
00:00 +16°C° 0 mm 1 mps 742 mmHg 97%
01:00 +16°C° 0 mm 1 mps 742 mmHg 98%
02:00 +15°C° 0 mm 1 mps 741 mmHg 98%
03:00 +16°C° 0.2 mm 1 mps 741 mmHg 97%
04:00 +16°C° 0.2 mm 1 mps 741 mmHg 97%
05:00 +15°C° 0.2 mm 0 mps 741 mmHg 96%
06:00 +16°C° 0.2 mm 0 mps 741 mmHg 94%
07:00 +16°C° 0.2 mm 0 mps 740 mmHg 93%
08:00 +17°C° 0.2 mm 0 mps 740 mmHg 91%
09:00 +17°C° 0.2 mm 0 mps 740 mmHg 92%
10:00 +19°C° 0.2 mm 1 mps 740 mmHg 93%
11:00 +19°C° 0.2 mm 1 mps 741 mmHg 94%
12:00 +20°C° 0.2 mm 2 mps 740 mmHg 88%
13:00 +21°C° 0.2 mm 3 mps 740 mmHg 82%
14:00 +24°C° 0.2 mm 3 mps 740 mmHg 76%
15:00 +24°C° 0.5 mm 3 mps 740 mmHg 74%
16:00 +24°C° 0.5 mm 3 mps 740 mmHg 71%
17:00 +25°C° 0.5 mm 3 mps 740 mmHg 69%
18:00 +22°C° 0.1 mm 3 mps 740 mmHg 71%
19:00 +21°C° 0.1 mm 3 mps 740 mmHg 73%
20:00 +20°C° 0.1 mm 3 mps 740 mmHg 74%
21:00 +19°C° 0 mm 3 mps 740 mmHg 78%
22:00 +18°C° 0 mm 3 mps 740 mmHg 81%
23:00 +17°C° 0 mm 3 mps 740 mmHg 85%

30 July, Friday

Time Temperature Precipitation Wind Pressure Humidity
00:00 +17°C° 0 mm 3 mps 740 mmHg 84%
01:00 +17°C° 0 mm 3 mps 741 mmHg 83%
02:00 +16°C° 0 mm 3 mps 741 mmHg 82%
03:00 +16°C° 0 mm 3 mps 741 mmHg 82%
04:00 +16°C° 0 mm 3 mps 741 mmHg 82%
05:00 +16°C° 0 mm 3 mps 741 mmHg 83%
06:00 +18°C° 0 mm 4 mps 742 mmHg 74%
07:00 +20°C° 0 mm 4 mps 742 mmHg 65%
08:00 +22°C° 0 mm 5 mps 742 mmHg 57%
09:00 +23°C° 0 mm 5 mps 742 mmHg 51%
10:00 +25°C° 0 mm 5 mps 742 mmHg 45%
11:00 +26°C° 0 mm 5 mps 742 mmHg 40%
12:00 +27°C° 0 mm 5 mps 742 mmHg 38%
13:00 +28°C° 0 mm 5 mps 742 mmHg 36%
14:00 +28°C° 0 mm 5 mps 742 mmHg 34%
15:00 +28°C° 0 mm 4 mps 742 mmHg 36%
16:00 +28°C° 0 mm 4 mps 742 mmHg 37%
17:00 +28°C° 0 mm 3 mps 742 mmHg 39%
18:00 +26°C° 0 mm 3 mps 742 mmHg 48%
19:00 +23°C° 0 mm 2 mps 742 mmHg 56%
20:00 +20°C° 0 mm 2 mps 742 mmHg 64%
21:00 +19°C° 0 mm 2 mps 742 mmHg 68%
22:00 +18°C° 0 mm 2 mps 742 mmHg 71%
23:00 +17°C° 0 mm 2 mps 742 mmHg 75%
Show more